Year,Month,Day,Hour,Minute,Value (Times are PST for windgust in km/hr)
2011,07,07,00,00,4.80
2011,07,07,00,01,4.80
2011,07,07,00,02,3.20
2011,07,07,00,03,3.20
2011,07,07,00,04,1.60
2011,07,07,00,05,1.60
2011,07,07,00,06,1.60
2011,07,07,00,07,3.20
2011,07,07,00,08,1.60
2011,07,07,00,09,1.60
2011,07,07,00,12,1.60
2011,07,07,00,13,3.20
2011,07,07,00,14,3.20
2011,07,07,00,15,6.40
2011,07,07,00,16,4.80
2011,07,07,00,17,6.40
2011,07,07,00,18,6.40
2011,07,07,00,19,8.10
2011,07,07,00,20,6.40
2011,07,07,00,21,6.40
2011,07,07,00,22,8.10
2011,07,07,00,23,8.10
2011,07,07,00,24,6.40
2011,07,07,00,25,9.60
2011,07,07,00,26,6.40
2011,07,07,00,27,4.80
2011,07,07,00,28,3.20
2011,07,07,00,29,3.20
2011,07,07,00,31,1.60
2011,07,07,00,32,3.20
2011,07,07,00,33,4.80
2011,07,07,00,34,1.60
2011,07,07,00,35,8.10
2011,07,07,00,36,6.40
2011,07,07,00,37,6.40
2011,07,07,00,38,3.20
2011,07,07,00,39,4.80
2011,07,07,00,40,3.20
2011,07,07,00,41,8.10
2011,07,07,00,42,14.50
2011,07,07,00,43,12.90
2011,07,07,00,44,11.30
2011,07,07,00,45,11.30
2011,07,07,00,46,11.30
2011,07,07,00,47,11.30
2011,07,07,00,48,9.60
2011,07,07,00,49,8.10
2011,07,07,00,50,9.60
2011,07,07,00,51,17.70
2011,07,07,00,52,16.10
2011,07,07,00,53,12.90
2011,07,07,00,54,14.50
2011,07,07,00,55,17.70
2011,07,07,00,56,17.70
2011,07,07,00,57,16.10
2011,07,07,00,58,14.50
2011,07,07,00,59,11.30
2011,07,07,01,00,14.50
2011,07,07,01,01,19.30
2011,07,07,01,02,16.10
2011,07,07,01,03,12.90
2011,07,07,01,04,16.10
2011,07,07,01,05,16.10
2011,07,07,01,06,9.60
2011,07,07,01,07,9.60
2011,07,07,01,08,17.70
2011,07,07,01,09,16.10
2011,07,07,01,10,12.90
2011,07,07,01,11,19.30
2011,07,07,01,12,14.50
2011,07,07,01,13,16.10
2011,07,07,01,14,16.10
2011,07,07,01,15,17.70
2011,07,07,01,16,22.50
2011,07,07,01,17,22.50
2011,07,07,01,18,20.90
2011,07,07,01,19,17.70
2011,07,07,01,20,17.70
2011,07,07,01,21,19.30
2011,07,07,01,22,16.10
2011,07,07,01,23,17.70
2011,07,07,01,24,20.90
2011,07,07,01,25,20.90
2011,07,07,01,26,19.30
2011,07,07,01,27,16.10
2011,07,07,01,28,19.30
2011,07,07,01,29,17.70
2011,07,07,01,30,17.70
2011,07,07,01,31,20.90
2011,07,07,01,32,20.90
2011,07,07,01,33,20.90
2011,07,07,01,34,20.90
2011,07,07,01,35,20.90
2011,07,07,01,36,19.30
2011,07,07,01,37,19.30
2011,07,07,01,38,17.70
2011,07,07,01,39,20.90
2011,07,07,01,40,24.20
2011,07,07,01,41,27.40
2011,07,07,01,42,22.50
2011,07,07,01,43,20.90
2011,07,07,01,44,24.20
2011,07,07,01,45,16.10
2011,07,07,01,46,22.50
2011,07,07,01,47,20.90
2011,07,07,01,48,19.30
2011,07,07,01,49,20.90
2011,07,07,01,50,14.50
2011,07,07,01,51,24.20
2011,07,07,01,52,19.30
2011,07,07,01,53,19.30
2011,07,07,01,54,19.30
2011,07,07,01,55,25.70
2011,07,07,01,56,25.70
2011,07,07,01,57,20.90
2011,07,07,01,58,20.90
2011,07,07,01,59,24.20
2011,07,07,02,00,25.70
2011,07,07,02,01,25.70
2011,07,07,02,02,20.90
2011,07,07,02,03,24.20
2011,07,07,02,04,20.90
2011,07,07,02,05,22.50
2011,07,07,02,06,27.40
2011,07,07,02,07,20.90
2011,07,07,02,08,22.50
2011,07,07,02,09,22.50
2011,07,07,02,10,16.10
2011,07,07,02,11,19.30
2011,07,07,02,12,20.90
2011,07,07,02,13,19.30
2011,07,07,02,14,19.30
2011,07,07,02,15,19.30
2011,07,07,02,16,20.90
2011,07,07,02,17,24.20
2011,07,07,02,18,16.10
2011,07,07,02,19,19.30
2011,07,07,02,20,16.10
2011,07,07,02,21,16.10
2011,07,07,02,22,17.70
2011,07,07,02,23,17.70
2011,07,07,02,24,17.70
2011,07,07,02,25,22.50
2011,07,07,02,26,20.90
2011,07,07,02,27,17.70
2011,07,07,02,28,22.50
2011,07,07,02,29,20.90
2011,07,07,02,30,27.40
2011,07,07,02,31,19.30
2011,07,07,02,32,17.70
2011,07,07,02,33,25.70
2011,07,07,02,34,19.30
2011,07,07,02,35,20.90
2011,07,07,02,36,22.50
2011,07,07,02,37,19.30
2011,07,07,02,38,19.30
2011,07,07,02,39,14.50
2011,07,07,02,40,20.90
2011,07,07,02,41,20.90
2011,07,07,02,42,20.90
2011,07,07,02,43,22.50
2011,07,07,02,44,20.90
2011,07,07,02,45,17.70
2011,07,07,02,46,17.70
2011,07,07,02,47,14.50
2011,07,07,02,48,20.90
2011,07,07,02,49,17.70
2011,07,07,02,50,19.30
2011,07,07,02,51,22.50
2011,07,07,02,52,22.50
2011,07,07,02,53,19.30
2011,07,07,02,54,19.30
2011,07,07,02,55,17.70
2011,07,07,02,56,17.70
2011,07,07,02,57,19.30
2011,07,07,02,58,20.90
2011,07,07,02,59,24.20
2011,07,07,03,00,20.90
2011,07,07,03,01,20.90
2011,07,07,03,02,24.20
2011,07,07,03,03,20.90
2011,07,07,03,04,22.50
2011,07,07,03,05,17.70
2011,07,07,03,06,19.30
2011,07,07,03,07,16.10
2011,07,07,03,08,20.90
2011,07,07,03,09,20.90
2011,07,07,03,10,20.90
2011,07,07,03,11,24.20
2011,07,07,03,12,14.50
2011,07,07,03,13,27.40
2011,07,07,03,14,19.30
2011,07,07,03,15,22.50
2011,07,07,03,16,22.50
2011,07,07,03,17,11.30
2011,07,07,03,18,22.50
2011,07,07,03,19,17.70
2011,07,07,03,20,14.50
2011,07,07,03,21,16.10
2011,07,07,03,22,24.20
2011,07,07,03,23,25.70
2011,07,07,03,24,27.40
2011,07,07,03,25,27.40
2011,07,07,03,26,27.40
2011,07,07,03,27,20.90
2011,07,07,03,28,22.50
2011,07,07,03,29,22.50
2011,07,07,03,30,20.90
2011,07,07,03,31,17.70
2011,07,07,03,32,17.70
2011,07,07,03,33,19.30
2011,07,07,03,34,24.20
2011,07,07,03,35,19.30
2011,07,07,03,36,20.90
2011,07,07,03,37,16.10
2011,07,07,03,38,19.30
2011,07,07,03,39,20.90
2011,07,07,03,40,19.30
2011,07,07,03,41,20.90
2011,07,07,03,42,29.00
2011,07,07,03,43,20.90
2011,07,07,03,44,17.70
2011,07,07,03,45,20.90
2011,07,07,03,46,20.90
2011,07,07,03,47,20.90
2011,07,07,03,48,20.90
2011,07,07,03,49,17.70
2011,07,07,03,50,16.10
2011,07,07,03,51,16.10
2011,07,07,03,52,22.50
2011,07,07,03,53,22.50
2011,07,07,03,54,22.50
2011,07,07,03,55,22.50
2011,07,07,03,56,24.20
2011,07,07,03,57,17.70
2011,07,07,03,58,24.20
2011,07,07,03,59,20.90
2011,07,07,04,00,22.50
2011,07,07,04,01,20.90
2011,07,07,04,02,20.90
2011,07,07,04,03,25.70
2011,07,07,04,04,20.90
2011,07,07,04,05,19.30
2011,07,07,04,06,27.40
2011,07,07,04,07,20.90
2011,07,07,04,08,25.70
2011,07,07,04,09,20.90
2011,07,07,04,10,20.90
2011,07,07,04,11,17.70
2011,07,07,04,12,16.10
2011,07,07,04,13,20.90
2011,07,07,04,14,24.20
2011,07,07,04,15,24.20
2011,07,07,04,16,24.20
2011,07,07,04,17,22.50
2011,07,07,04,18,16.10
2011,07,07,04,19,17.70
2011,07,07,04,20,14.50
2011,07,07,04,21,19.30
2011,07,07,04,22,20.90
2011,07,07,04,23,19.30
2011,07,07,04,24,22.50
2011,07,07,04,25,20.90
2011,07,07,04,26,14.50
2011,07,07,04,27,20.90
2011,07,07,04,28,22.50
2011,07,07,04,29,22.50
2011,07,07,04,30,19.30
2011,07,07,04,31,22.50
2011,07,07,04,32,20.90
2011,07,07,04,33,19.30
2011,07,07,04,34,24.20
2011,07,07,04,35,25.70
2011,07,07,04,36,22.50
2011,07,07,04,37,17.70
2011,07,07,04,38,22.50
2011,07,07,04,39,16.10
2011,07,07,04,40,16.10
2011,07,07,04,41,24.20
2011,07,07,04,42,24.20
2011,07,07,04,43,11.30
2011,07,07,04,44,19.30
2011,07,07,04,45,19.30
2011,07,07,04,46,17.70
2011,07,07,04,47,19.30
2011,07,07,04,48,16.10
2011,07,07,04,49,14.50
2011,07,07,04,50,11.30
2011,07,07,04,51,22.50
2011,07,07,04,52,20.90
2011,07,07,04,53,20.90
2011,07,07,04,54,19.30
2011,07,07,04,55,25.70
2011,07,07,04,56,24.20
2011,07,07,04,57,20.90
2011,07,07,04,58,22.50
2011,07,07,04,59,19.30
2011,07,07,05,00,19.30
2011,07,07,05,01,22.50
2011,07,07,05,02,24.20
2011,07,07,05,03,24.20
2011,07,07,05,04,20.90
2011,07,07,05,05,20.90
2011,07,07,05,06,27.40
2011,07,07,05,07,20.90
2011,07,07,05,08,29.00
2011,07,07,05,09,20.90
2011,07,07,05,10,27.40
2011,07,07,05,11,27.40
2011,07,07,05,12,27.40
2011,07,07,05,13,24.20
2011,07,07,05,14,22.50
2011,07,07,05,15,20.90
2011,07,07,05,16,27.40
2011,07,07,05,17,22.50
2011,07,07,05,18,19.30
2011,07,07,05,19,17.70
2011,07,07,05,20,24.20
2011,07,07,05,21,19.30
2011,07,07,05,22,25.70
2011,07,07,05,23,20.90
2011,07,07,05,24,25.70
2011,07,07,05,25,14.50
2011,07,07,05,26,25.70
2011,07,07,05,27,20.90
2011,07,07,05,28,22.50
2011,07,07,05,29,22.50
2011,07,07,05,30,22.50
2011,07,07,05,31,17.70
2011,07,07,05,32,25.70
2011,07,07,05,33,19.30
2011,07,07,05,34,20.90
2011,07,07,05,35,22.50
2011,07,07,05,36,14.50
2011,07,07,05,37,19.30
2011,07,07,05,38,19.30
2011,07,07,05,39,20.90
2011,07,07,05,40,19.30
2011,07,07,05,41,12.90
2011,07,07,05,42,22.50
2011,07,07,05,43,22.50
2011,07,07,05,44,19.30
2011,07,07,05,45,16.10
2011,07,07,05,46,20.90
2011,07,07,05,47,22.50
2011,07,07,05,48,19.30
2011,07,07,05,49,19.30
2011,07,07,05,50,17.70
2011,07,07,05,51,20.90
2011,07,07,05,52,24.20
2011,07,07,05,53,19.30
2011,07,07,05,54,20.90
2011,07,07,05,55,20.90
2011,07,07,05,56,20.90
2011,07,07,05,57,19.30
2011,07,07,05,58,17.70
2011,07,07,05,59,19.30
2011,07,07,06,00,17.70
2011,07,07,06,01,27.40
2011,07,07,06,02,25.70
2011,07,07,06,03,20.90
2011,07,07,06,04,19.30
2011,07,07,06,05,24.20
2011,07,07,06,06,24.20
2011,07,07,06,07,24.20
2011,07,07,06,08,22.50
2011,07,07,06,09,20.90
2011,07,07,06,10,22.50
2011,07,07,06,11,17.70
2011,07,07,06,12,20.90
2011,07,07,06,13,25.70
2011,07,07,06,14,19.30
2011,07,07,06,15,25.70
2011,07,07,06,16,22.50
2011,07,07,06,17,19.30
2011,07,07,06,18,17.70
2011,07,07,06,19,20.90
2011,07,07,06,20,19.30
2011,07,07,06,21,19.30
2011,07,07,06,22,22.50
2011,07,07,06,23,22.50
2011,07,07,06,24,16.10
2011,07,07,06,25,19.30
2011,07,07,06,26,17.70
2011,07,07,06,27,17.70
2011,07,07,06,28,25.70
2011,07,07,06,29,19.30
2011,07,07,06,30,24.20
2011,07,07,06,31,19.30
2011,07,07,06,32,19.30
2011,07,07,06,33,20.90
2011,07,07,06,34,24.20
2011,07,07,06,35,20.90
2011,07,07,06,36,20.90
2011,07,07,06,37,24.20
2011,07,07,06,38,24.20
2011,07,07,06,39,24.20
2011,07,07,06,40,19.30
2011,07,07,06,41,30.60
2011,07,07,06,42,24.20
2011,07,07,06,43,27.40
2011,07,07,06,44,20.90
2011,07,07,06,45,20.90
2011,07,07,06,46,19.30
2011,07,07,06,47,25.70
2011,07,07,06,48,27.40
2011,07,07,06,49,22.50
2011,07,07,06,50,16.10
2011,07,07,06,51,17.70
2011,07,07,06,52,19.30
2011,07,07,06,53,17.70
2011,07,07,06,54,20.90
2011,07,07,06,55,19.30
2011,07,07,06,56,20.90
2011,07,07,06,57,16.10
2011,07,07,06,58,17.70
2011,07,07,06,59,20.90
2011,07,07,07,00,24.20
2011,07,07,07,01,17.70
2011,07,07,07,02,16.10
2011,07,07,07,03,22.50
2011,07,07,07,04,19.30
2011,07,07,07,05,22.50
2011,07,07,07,06,20.90
2011,07,07,07,07,20.90
2011,07,07,07,08,19.30
2011,07,07,07,09,24.20
2011,07,07,07,10,22.50
2011,07,07,07,11,17.70
2011,07,07,07,12,9.60
2011,07,07,07,13,20.90
2011,07,07,07,14,16.10
2011,07,07,07,15,20.90
2011,07,07,07,16,22.50
2011,07,07,07,17,22.50
2011,07,07,07,18,22.50
2011,07,07,07,19,12.90
2011,07,07,07,20,16.10
2011,07,07,07,21,20.90
2011,07,07,07,22,30.60
2011,07,07,07,23,22.50
2011,07,07,07,24,14.50
2011,07,07,07,25,27.40
2011,07,07,07,26,20.90
2011,07,07,07,27,19.30
2011,07,07,07,28,24.20
2011,07,07,07,29,25.70
2011,07,07,07,30,20.90
2011,07,07,07,31,19.30
2011,07,07,07,32,11.30
2011,07,07,07,33,17.70
2011,07,07,07,34,14.50
2011,07,07,07,35,17.70
2011,07,07,07,36,24.20
2011,07,07,07,37,19.30
2011,07,07,07,38,25.70
2011,07,07,07,39,20.90
2011,07,07,07,40,16.10
2011,07,07,07,41,20.90
2011,07,07,07,42,16.10
2011,07,07,07,43,24.20
2011,07,07,07,44,17.70
2011,07,07,07,45,22.50
2011,07,07,07,46,22.50
2011,07,07,07,47,16.10
2011,07,07,07,48,27.40
2011,07,07,07,49,25.70
2011,07,07,07,50,9.60
2011,07,07,07,51,22.50
2011,07,07,07,52,20.90
2011,07,07,07,53,24.20
2011,07,07,07,54,17.70
2011,07,07,07,55,25.70
2011,07,07,07,56,25.70
2011,07,07,07,57,19.30
2011,07,07,07,58,22.50
2011,07,07,07,59,12.90
2011,07,07,08,00,19.30
2011,07,07,08,01,29.00
2011,07,07,08,02,14.50
2011,07,07,08,03,27.40
2011,07,07,08,04,22.50
2011,07,07,08,05,20.90
2011,07,07,08,06,22.50
2011,07,07,08,07,29.00
2011,07,07,08,08,22.50
2011,07,07,08,09,19.30
2011,07,07,08,10,22.50
2011,07,07,08,11,20.90
2011,07,07,08,12,22.50
2011,07,07,08,13,27.40
2011,07,07,08,14,20.90
2011,07,07,08,15,22.50
2011,07,07,08,16,17.70
2011,07,07,08,17,24.20
2011,07,07,08,18,20.90
2011,07,07,08,19,17.70
2011,07,07,08,20,24.20
2011,07,07,08,21,29.00
2011,07,07,08,22,19.30
2011,07,07,08,23,22.50
2011,07,07,08,24,11.30
2011,07,07,08,25,17.70
2011,07,07,08,26,11.30
2011,07,07,08,27,22.50
2011,07,07,08,28,24.20
2011,07,07,08,29,20.90
2011,07,07,08,30,17.70
2011,07,07,08,31,14.50
2011,07,07,08,32,20.90
2011,07,07,08,33,16.10
2011,07,07,08,34,17.70
2011,07,07,08,35,16.10
2011,07,07,08,36,24.20
2011,07,07,08,37,22.50
2011,07,07,08,38,22.50
2011,07,07,08,39,22.50
2011,07,07,08,40,19.30
2011,07,07,08,41,17.70
2011,07,07,08,42,19.30
2011,07,07,08,43,20.90
2011,07,07,08,44,17.70
2011,07,07,08,45,16.10
2011,07,07,08,46,19.30
2011,07,07,08,47,11.30
2011,07,07,08,48,24.20
2011,07,07,08,49,19.30
2011,07,07,08,50,11.30
2011,07,07,08,51,17.70
2011,07,07,08,52,20.90
2011,07,07,08,53,16.10
2011,07,07,08,54,14.50
2011,07,07,08,55,19.30
2011,07,07,08,56,17.70
2011,07,07,08,57,11.30
2011,07,07,08,58,27.40
2011,07,07,08,59,22.50
2011,07,07,09,00,20.90
2011,07,07,09,01,17.70
2011,07,07,09,02,20.90
2011,07,07,09,03,27.40
2011,07,07,09,04,20.90
2011,07,07,09,05,25.70
2011,07,07,09,06,20.90
2011,07,07,09,07,17.70
2011,07,07,09,08,19.30
2011,07,07,09,09,22.50
2011,07,07,09,10,17.70
2011,07,07,09,11,24.20
2011,07,07,09,12,17.70
2011,07,07,09,13,9.60
2011,07,07,09,14,16.10
2011,07,07,09,15,22.50
2011,07,07,09,16,20.90
2011,07,07,09,17,20.90
2011,07,07,09,18,20.90
2011,07,07,09,19,27.40
2011,07,07,09,20,19.30
2011,07,07,09,21,17.70
2011,07,07,09,22,29.00
2011,07,07,09,23,20.90
2011,07,07,09,24,14.50
2011,07,07,09,25,14.50
2011,07,07,09,26,17.70
2011,07,07,09,27,22.50
2011,07,07,09,28,19.30
2011,07,07,09,29,25.70
2011,07,07,09,30,22.50
2011,07,07,09,31,22.50
2011,07,07,09,32,22.50
2011,07,07,09,33,22.50
2011,07,07,09,34,11.30
2011,07,07,09,35,16.10
2011,07,07,09,36,25.70
2011,07,07,09,37,19.30
2011,07,07,09,38,20.90
2011,07,07,09,39,29.00
2011,07,07,09,40,25.70
2011,07,07,09,41,19.30
2011,07,07,09,42,22.50
2011,07,07,09,43,20.90
2011,07,07,09,44,25.70
2011,07,07,09,45,12.90
2011,07,07,09,46,19.30
2011,07,07,09,47,20.90
2011,07,07,09,48,14.50
2011,07,07,09,49,22.50
2011,07,07,09,50,24.20
2011,07,07,09,51,27.40
2011,07,07,09,52,16.10
2011,07,07,09,53,17.70
2011,07,07,09,54,17.70
2011,07,07,09,55,22.50
2011,07,07,09,56,17.70
2011,07,07,09,57,22.50
2011,07,07,09,58,20.90
2011,07,07,09,59,29.00
2011,07,07,10,00,9.60
2011,07,07,10,01,24.20
2011,07,07,10,02,19.30
2011,07,07,10,03,17.70
2011,07,07,10,04,22.50
2011,07,07,10,05,19.30
2011,07,07,10,06,19.30
2011,07,07,10,07,25.70
2011,07,07,10,08,27.40
2011,07,07,10,09,22.50
2011,07,07,10,10,27.40
2011,07,07,10,11,24.20
2011,07,07,10,12,29.00
2011,07,07,10,13,24.20
2011,07,07,10,14,29.00
2011,07,07,10,15,20.90
2011,07,07,10,16,29.00
2011,07,07,10,17,30.60
2011,07,07,10,18,24.20
2011,07,07,10,19,22.50
2011,07,07,10,20,30.60
2011,07,07,10,21,22.50
2011,07,07,10,22,29.00
2011,07,07,10,23,17.70
2011,07,07,10,24,24.20
2011,07,07,10,25,22.50
2011,07,07,10,26,32.20
2011,07,07,10,27,25.70
2011,07,07,10,28,29.00
2011,07,07,10,29,38.60
2011,07,07,10,30,27.40
2011,07,07,10,31,25.70
2011,07,07,10,32,30.60
2011,07,07,10,33,29.00
2011,07,07,10,34,22.50
2011,07,07,10,35,24.20
2011,07,07,10,36,29.00
2011,07,07,10,37,32.20
2011,07,07,10,38,27.40
2011,07,07,10,39,25.70
2011,07,07,10,40,17.70
2011,07,07,10,41,22.50
2011,07,07,10,42,20.90
2011,07,07,10,43,16.10
2011,07,07,10,44,16.10
2011,07,07,10,45,27.40
2011,07,07,10,46,22.50
2011,07,07,10,47,11.30
2011,07,07,10,48,17.70
2011,07,07,10,49,22.50
2011,07,07,10,50,25.70
2011,07,07,10,51,29.00
2011,07,07,10,52,22.50
2011,07,07,10,53,22.50
2011,07,07,10,54,22.50
2011,07,07,10,55,25.70
2011,07,07,10,56,32.20
2011,07,07,10,57,17.70
2011,07,07,10,58,20.90
2011,07,07,10,59,12.90
2011,07,07,11,00,24.20
2011,07,07,11,01,20.90
2011,07,07,11,02,22.50
2011,07,07,11,03,14.50
2011,07,07,11,04,20.90
2011,07,07,11,05,27.40
2011,07,07,11,06,27.40
2011,07,07,11,07,32.20
2011,07,07,11,08,24.20
2011,07,07,11,09,27.40
2011,07,07,11,10,20.90
2011,07,07,11,11,20.90
2011,07,07,11,12,20.90
2011,07,07,11,13,14.50
2011,07,07,11,14,19.30
2011,07,07,11,15,22.50
2011,07,07,11,16,19.30
2011,07,07,11,17,17.70
2011,07,07,11,18,22.50
2011,07,07,11,19,22.50
2011,07,07,11,20,24.20
2011,07,07,11,21,27.40
2011,07,07,11,22,24.20
2011,07,07,11,23,27.40
2011,07,07,11,24,24.20
2011,07,07,11,25,27.40
2011,07,07,11,26,30.60
2011,07,07,11,27,22.50
2011,07,07,11,28,25.70
2011,07,07,11,29,20.90
2011,07,07,11,30,30.60
2011,07,07,11,31,38.60
2011,07,07,11,32,25.70
2011,07,07,11,33,25.70
2011,07,07,11,34,22.50
2011,07,07,11,35,20.90
2011,07,07,11,36,25.70
2011,07,07,11,37,24.20
2011,07,07,11,38,19.30
2011,07,07,11,39,17.70
2011,07,07,11,40,29.00
2011,07,07,11,41,32.20
2011,07,07,11,42,27.40
2011,07,07,11,43,32.20
2011,07,07,11,44,27.40
2011,07,07,11,45,30.60
2011,07,07,11,46,27.40
2011,07,07,11,47,27.40
2011,07,07,11,48,25.70
2011,07,07,11,49,27.40
2011,07,07,11,50,29.00
2011,07,07,11,51,25.70
2011,07,07,11,52,27.40
2011,07,07,11,53,29.00
2011,07,07,11,54,32.20
2011,07,07,11,55,33.80
2011,07,07,11,56,30.60
2011,07,07,11,57,32.20
2011,07,07,11,58,32.20
2011,07,07,11,59,27.40
2011,07,07,12,00,37.00
2011,07,07,12,01,30.60
2011,07,07,12,02,25.70
2011,07,07,12,03,30.60
2011,07,07,12,04,35.40
2011,07,07,12,05,37.00
2011,07,07,12,06,24.20
2011,07,07,12,07,22.50
2011,07,07,12,08,32.20
2011,07,07,12,09,30.60
2011,07,07,12,10,29.00
2011,07,07,12,11,27.40
2011,07,07,12,12,24.20
2011,07,07,12,13,32.20
2011,07,07,12,14,29.00
2011,07,07,12,15,25.70
2011,07,07,12,16,25.70
2011,07,07,12,17,30.60
2011,07,07,12,18,32.20
2011,07,07,12,19,29.00
2011,07,07,12,20,27.40
2011,07,07,12,21,24.20
2011,07,07,12,22,29.00
2011,07,07,12,23,37.00
2011,07,07,12,24,24.20
2011,07,07,12,25,35.40
2011,07,07,12,26,33.80
2011,07,07,12,27,32.20
2011,07,07,12,28,29.00
2011,07,07,12,29,32.20
2011,07,07,12,30,30.60
2011,07,07,12,31,29.00
2011,07,07,12,32,24.20
2011,07,07,12,33,32.20
2011,07,07,12,34,30.60
2011,07,07,12,35,25.70
2011,07,07,12,36,37.00
2011,07,07,12,37,32.20
2011,07,07,12,38,38.60
2011,07,07,12,39,27.40
2011,07,07,12,40,30.60
2011,07,07,12,41,29.00
2011,07,07,12,42,24.20
2011,07,07,12,43,30.60
2011,07,07,12,44,17.70
2011,07,07,12,45,20.90
2011,07,07,12,46,25.70
2011,07,07,12,47,20.90
2011,07,07,12,48,17.70
2011,07,07,12,49,32.20
2011,07,07,12,50,19.30
2011,07,07,12,51,35.40
2011,07,07,12,52,24.20
2011,07,07,12,53,27.40
2011,07,07,12,54,22.50
2011,07,07,12,55,27.40
2011,07,07,12,56,33.80
2011,07,07,12,57,30.60
2011,07,07,12,58,29.00
2011,07,07,12,59,32.20
2011,07,07,13,00,22.50
2011,07,07,13,01,33.80
2011,07,07,13,02,29.00
2011,07,07,13,03,14.50
2011,07,07,13,04,33.80
2011,07,07,13,05,29.00
2011,07,07,13,06,32.20
2011,07,07,13,07,29.00
2011,07,07,13,08,35.40
2011,07,07,13,09,20.90
2011,07,07,13,10,37.00
2011,07,07,13,11,29.00
2011,07,07,13,12,24.20
2011,07,07,13,13,25.70
2011,07,07,13,14,29.00
2011,07,07,13,15,37.00
2011,07,07,13,16,30.60
2011,07,07,13,17,25.70
2011,07,07,13,18,20.90
2011,07,07,13,19,29.00
2011,07,07,13,20,29.00
2011,07,07,13,21,29.00
2011,07,07,13,22,30.60
2011,07,07,13,23,20.90
2011,07,07,13,24,32.20
2011,07,07,13,25,38.60
2011,07,07,13,26,25.70
2011,07,07,13,27,33.80
2011,07,07,13,28,27.40
2011,07,07,13,29,25.70
2011,07,07,13,30,27.40
2011,07,07,13,31,29.00
2011,07,07,13,32,33.80
2011,07,07,13,33,29.00
2011,07,07,13,34,30.60
2011,07,07,13,35,33.80
2011,07,07,13,36,35.40
2011,07,07,13,37,19.30
2011,07,07,13,38,24.20
2011,07,07,13,39,29.00
2011,07,07,13,40,32.20
2011,07,07,13,41,25.70
2011,07,07,13,42,32.20
2011,07,07,13,43,30.60
2011,07,07,13,44,29.00
2011,07,07,13,45,35.40
2011,07,07,13,46,30.60
2011,07,07,13,47,16.10
2011,07,07,13,48,29.00
2011,07,07,13,49,33.80
2011,07,07,13,50,38.60
2011,07,07,13,51,33.80
2011,07,07,13,52,24.20
2011,07,07,13,53,32.20
2011,07,07,13,54,30.60
2011,07,07,13,55,30.60
2011,07,07,13,56,25.70
2011,07,07,13,57,27.40
2011,07,07,13,58,16.10
2011,07,07,13,59,25.70
2011,07,07,14,00,32.20
2011,07,07,14,01,30.60
2011,07,07,14,02,29.00
2011,07,07,14,03,33.80
2011,07,07,14,04,30.60
2011,07,07,14,05,25.70
2011,07,07,14,06,20.90
2011,07,07,14,07,24.20
2011,07,07,14,08,29.00
2011,07,07,14,09,33.80
2011,07,07,14,10,35.40
2011,07,07,14,11,32.20
2011,07,07,14,12,27.40
2011,07,07,14,13,27.40
2011,07,07,14,14,27.40
2011,07,07,14,15,24.20
2011,07,07,14,16,29.00
2011,07,07,14,17,27.40
2011,07,07,14,18,20.90
2011,07,07,14,19,33.80
2011,07,07,14,20,33.80
2011,07,07,14,21,27.40
2011,07,07,14,22,24.20
2011,07,07,14,23,37.00
2011,07,07,14,24,25.70
2011,07,07,14,25,19.30
2011,07,07,14,26,25.70
2011,07,07,14,27,25.70
2011,07,07,14,28,24.20
2011,07,07,14,29,27.40
2011,07,07,14,30,29.00
2011,07,07,14,31,40.20
2011,07,07,14,32,37.00
2011,07,07,14,33,41.80
2011,07,07,14,34,37.00
2011,07,07,14,35,30.60
2011,07,07,14,36,27.40
2011,07,07,14,37,37.00
2011,07,07,14,38,27.40
2011,07,07,14,39,25.70
2011,07,07,14,40,38.60
2011,07,07,14,41,29.00
2011,07,07,14,42,29.00
2011,07,07,14,43,30.60
2011,07,07,14,44,24.20
2011,07,07,14,45,38.60
2011,07,07,14,46,29.00
2011,07,07,14,47,29.00
2011,07,07,14,48,25.70
2011,07,07,14,49,25.70
2011,07,07,14,50,32.20
2011,07,07,14,51,29.00
2011,07,07,14,52,25.70
2011,07,07,14,53,32.20
2011,07,07,14,54,33.80
2011,07,07,14,55,14.50
2011,07,07,14,56,25.70
2011,07,07,14,57,37.00
2011,07,07,14,58,32.20
2011,07,07,14,59,30.60
2011,07,07,15,00,32.20
2011,07,07,15,01,29.00
2011,07,07,15,02,29.00
2011,07,07,15,03,29.00
2011,07,07,15,04,24.20
2011,07,07,15,05,16.10
2011,07,07,15,06,19.30
2011,07,07,15,07,20.90
2011,07,07,15,08,20.90
2011,07,07,15,09,29.00
2011,07,07,15,10,30.60
2011,07,07,15,11,20.90
2011,07,07,15,12,27.40
2011,07,07,15,13,37.00
2011,07,07,15,14,27.40
2011,07,07,15,15,38.60
2011,07,07,15,16,29.00
2011,07,07,15,17,40.20
2011,07,07,15,18,38.60
2011,07,07,15,19,29.00
2011,07,07,15,20,27.40
2011,07,07,15,21,29.00
2011,07,07,15,22,20.90
2011,07,07,15,23,20.90
2011,07,07,15,24,29.00
2011,07,07,15,25,29.00
2011,07,07,15,26,14.50
2011,07,07,15,27,14.50
2011,07,07,15,28,30.60
2011,07,07,15,29,22.50
2011,07,07,15,30,24.20
2011,07,07,15,31,25.70
2011,07,07,15,32,29.00
2011,07,07,15,33,30.60
2011,07,07,15,34,24.20
2011,07,07,15,35,22.50
2011,07,07,15,36,25.70
2011,07,07,15,37,27.40
2011,07,07,15,38,29.00
2011,07,07,15,39,30.60
2011,07,07,15,40,32.20
2011,07,07,15,41,30.60
2011,07,07,15,42,25.70
2011,07,07,15,43,29.00
2011,07,07,15,44,30.60
2011,07,07,15,45,27.40
2011,07,07,15,46,33.80
2011,07,07,15,47,41.80
2011,07,07,15,48,43.50
2011,07,07,15,49,30.60
2011,07,07,15,50,27.40
2011,07,07,15,51,29.00
2011,07,07,15,52,25.70
2011,07,07,15,53,29.00
2011,07,07,15,54,40.20
2011,07,07,15,55,53.10
2011,07,07,15,56,35.40
2011,07,07,15,57,32.20
2011,07,07,15,58,27.40
2011,07,07,15,59,48.30
2011,07,07,16,00,38.60
2011,07,07,16,01,38.60
2011,07,07,16,02,51.50
2011,07,07,16,03,27.40
2011,07,07,16,04,30.60
2011,07,07,16,05,43.50
2011,07,07,16,06,46.70
2011,07,07,16,07,29.00
2011,07,07,16,08,38.60
2011,07,07,16,09,35.40
2011,07,07,16,10,22.50
2011,07,07,16,11,35.40
2011,07,07,16,12,38.60
2011,07,07,16,13,33.80
2011,07,07,16,14,38.60
2011,07,07,16,15,37.00
2011,07,07,16,16,29.00
2011,07,07,16,17,33.80
2011,07,07,16,18,40.20
2011,07,07,16,19,32.20
2011,07,07,16,20,46.70
2011,07,07,16,21,32.20
2011,07,07,16,22,41.80
2011,07,07,16,23,41.80
2011,07,07,16,24,29.00
2011,07,07,16,25,40.20
2011,07,07,16,26,35.40
2011,07,07,16,27,41.80
2011,07,07,16,28,48.30
2011,07,07,16,29,38.60
2011,07,07,16,30,35.40
2011,07,07,16,31,30.60
2011,07,07,16,32,46.70
2011,07,07,16,33,43.50
2011,07,07,16,34,41.80
2011,07,07,16,35,37.00
2011,07,07,16,36,38.60
2011,07,07,16,37,37.00
2011,07,07,16,38,37.00
2011,07,07,16,39,30.60
2011,07,07,16,40,29.00
2011,07,07,16,41,37.00
2011,07,07,16,42,40.20
2011,07,07,16,43,35.40
2011,07,07,16,44,46.70
2011,07,07,16,45,46.70
2011,07,07,16,46,38.60
2011,07,07,16,47,33.80
2011,07,07,16,48,41.80
2011,07,07,16,49,38.60
2011,07,07,16,50,38.60
2011,07,07,16,51,29.00
2011,07,07,16,52,35.40
2011,07,07,16,53,25.70
2011,07,07,16,54,33.80
2011,07,07,16,55,30.60
2011,07,07,16,56,29.00
2011,07,07,16,57,35.40
2011,07,07,16,58,32.20
2011,07,07,16,59,40.20
2011,07,07,17,00,29.00
2011,07,07,17,01,35.40
2011,07,07,17,02,30.60
2011,07,07,17,03,37.00
2011,07,07,17,04,35.40
2011,07,07,17,05,24.20
2011,07,07,17,06,40.20
2011,07,07,17,07,29.00
2011,07,07,17,08,32.20
2011,07,07,17,09,16.10
2011,07,07,17,10,29.00
2011,07,07,17,11,29.00
2011,07,07,17,12,27.40
2011,07,07,17,13,20.90
2011,07,07,17,14,38.60
2011,07,07,17,15,33.80
2011,07,07,17,16,27.40
2011,07,07,17,17,25.70
2011,07,07,17,18,30.60
2011,07,07,17,19,35.40
2011,07,07,17,20,37.00
2011,07,07,17,21,33.80
2011,07,07,17,22,37.00
2011,07,07,17,23,35.40
2011,07,07,17,24,27.40